Time,TemperatureF,DewpointF,PressureIn,WindDirection,WindDirectionDegrees,WindSpeedMPH,WindSpeedGustMPH,Humidity,HourlyPrecipIn,Conditions,Clouds,dailyrainin,SolarRadiationWatts/m^2,SoftwareType,DateUTC
2013-03-28 00:00:00,63.6,58.0,30.17,ESE,112,2.0,6.0,82,0.00,,,0.00,0.00,VWS V14.00,2013-03-28 05:00:00,
2013-03-28 00:15:00,63.6,58.0,30.17,ESE,112,1.0,7.0,82,0.00,,,0.00,0.00,VWS V14.00,2013-03-28 05:15:00,
2013-03-28 00:30:00,63.6,58.3,30.17,SE,135,1.0,4.0,83,0.00,,,0.00,0.00,VWS V14.00,2013-03-28 05:30:00,
2013-03-28 00:45:00,63.7,58.5,30.16,ESE,112,2.0,6.0,83,0.00,,,0.00,0.00,VWS V14.00,2013-03-28 05:45:00,
2013-03-28 01:00:00,63.6,58.3,30.16,ESE,112,1.0,5.0,83,0.00,,,0.00,0.00,VWS V14.00,2013-03-28 06:00:00,
2013-03-28 01:15:00,63.5,58.6,30.16,ESE,112,1.0,4.0,84,0.00,,,0.00,0.00,VWS V14.00,2013-03-28 06:15:00,
2013-03-28 01:30:00,63.6,58.7,30.15,ESE,112,1.0,4.0,84,0.00,,,0.00,0.00,VWS V14.00,2013-03-28 06:30:00,
2013-03-28 01:45:00,63.5,58.6,30.15,ESE,112,1.0,4.0,84,0.00,,,0.00,0.00,VWS V14.00,2013-03-28 06:45:00,
2013-03-28 02:00:00,63.5,58.9,30.15,ESE,112,1.0,6.0,85,0.00,,,0.00,0.00,VWS V14.00,2013-03-28 07:00:00,
2013-03-28 02:15:00,63.7,58.8,30.15,SE,135,2.0,6.0,84,0.00,,,0.00,0.00,VWS V14.00,2013-03-28 07:15:00,
2013-03-28 02:30:00,63.8,58.9,30.14,SSE,158,1.0,5.0,84,0.00,,,0.00,0.00,VWS V14.00,2013-03-28 07:30:00,
2013-03-28 02:45:00,63.9,58.6,30.14,South,180,2.0,6.0,83,0.00,,,0.00,0.00,VWS V14.00,2013-03-28 07:45:00,
2013-03-28 03:00:00,63.9,58.6,30.14,SE,135,2.0,5.0,83,0.00,,,0.00,0.00,VWS V14.00,2013-03-28 08:00:00,
2013-03-28 03:15:00,63.9,59.0,30.14,SSE,158,1.0,4.0,84,0.00,,,0.00,0.00,VWS V14.00,2013-03-28 08:15:00,
2013-03-28 03:30:00,63.9,59.0,30.14,ESE,112,1.0,4.0,84,0.00,,,0.00,0.00,VWS V14.00,2013-03-28 08:30:00,
2013-03-28 03:45:00,63.8,58.9,30.13,SE,135,1.0,4.0,84,0.00,,,0.00,0.00,VWS V14.00,2013-03-28 08:45:00,
2013-03-28 04:00:00,63.9,59.0,30.12,SE,135,1.0,4.0,84,0.00,,,0.00,0.00,VWS V14.00,2013-03-28 09:00:00,
2013-03-28 04:15:00,63.9,59.3,30.12,SE,135,1.0,4.0,85,0.00,,,0.00,0.00,VWS V14.00,2013-03-28 09:15:00,
2013-03-28 04:30:00,64.0,59.4,30.12,SE,135,1.0,3.0,85,0.00,,,0.00,0.00,VWS V14.00,2013-03-28 09:30:00,
2013-03-28 04:45:00,64.1,59.5,30.12,SE,135,1.0,5.0,85,0.00,,,0.00,0.00,VWS V14.00,2013-03-28 09:45:00,
2013-03-28 05:00:00,64.2,59.3,30.12,SE,135,2.0,5.0,84,0.00,,,0.00,0.00,VWS V14.00,2013-03-28 10:00:00,
2013-03-28 05:15:00,64.1,59.5,30.12,ESE,112,2.0,5.0,85,0.00,,,0.00,0.00,VWS V14.00,2013-03-28 10:15:00,
2013-03-28 05:30:00,64.1,59.8,30.12,SE,135,1.0,4.0,86,0.00,,,0.00,0.00,VWS V14.00,2013-03-28 10:30:00,
2013-03-28 05:45:00,64.4,59.8,30.12,ESE,112,2.0,6.0,85,0.00,,,0.00,0.00,VWS V14.00,2013-03-28 10:45:00,
2013-03-28 06:00:00,64.3,59.7,30.12,ESE,112,2.0,5.0,85,0.00,,,0.00,0.00,VWS V14.00,2013-03-28 11:00:00,
2013-03-28 06:15:00,64.0,59.7,30.12,ESE,112,2.0,6.0,86,0.00,,,0.00,0.00,VWS V14.00,2013-03-28 11:15:00,
2013-03-28 06:30:00,64.0,60.1,30.12,ESE,112,2.0,6.0,87,0.00,,,0.00,0.00,VWS V14.00,2013-03-28 11:30:00,
2013-03-28 06:45:00,63.9,60.0,30.12,ESE,112,1.0,5.0,87,0.00,,,0.00,0.00,VWS V14.00,2013-03-28 11:45:00,
2013-03-28 07:00:00,64.3,60.3,30.13,ESE,112,1.0,5.0,87,0.00,,,0.00,0.00,VWS V14.00,2013-03-28 12:00:00,
2013-03-28 07:15:00,64.5,59.9,30.13,SSE,158,1.0,6.0,85,0.00,,,0.00,0.00,VWS V14.00,2013-03-28 12:15:00,
2013-03-28 07:30:00,64.7,60.1,30.14,South,180,2.0,6.0,85,0.00,,,0.00,1.00,VWS V14.00,2013-03-28 12:30:00,
2013-03-28 07:45:00,64.8,60.2,30.14,SE,135,2.0,4.0,85,0.00,,,0.00,10.00,VWS V14.00,2013-03-28 12:45:00,
2013-03-28 08:00:00,65.0,60.4,30.15,SE,135,2.0,6.0,85,0.00,,,0.00,24.00,VWS V14.00,2013-03-28 13:00:00,
2013-03-28 08:15:00,65.0,60.7,30.15,ESE,112,1.0,4.0,86,0.00,,,0.00,43.00,VWS V14.00,2013-03-28 13:15:00,
2013-03-28 08:30:00,65.1,60.8,30.15,ESE,112,1.0,4.0,86,0.00,,,0.00,57.00,VWS V14.00,2013-03-28 13:30:00,
2013-03-28 08:45:00,65.4,61.1,30.16,ESE,112,1.0,5.0,86,0.00,,,0.00,74.00,VWS V14.00,2013-03-28 13:45:00,
2013-03-28 09:00:00,65.9,61.3,30.16,ESE,112,2.0,6.0,85,0.00,,,0.00,100.00,VWS V14.00,2013-03-28 14:00:00,
2013-03-28 09:22:00,66.3,61.7,30.16,ESE,112,2.0,4.0,85,0.00,,,0.00,139.00,VWS V14.00,2013-03-28 14:22:00,
2013-03-28 09:45:00,67.2,61.9,30.17,SE,125,2.0,6.0,83,0.00,,,0.00,200.00,VWS V14.00,2013-03-28 14:45:00,
2013-03-28 10:00:00,67.7,62.0,30.17,ESE,112,2.0,7.0,82,0.00,,,0.00,214.00,VWS V14.00,2013-03-28 15:00:00,
2013-03-28 10:15:00,68.3,62.2,30.17,ESE,112,2.0,7.0,81,0.00,,,0.00,238.00,VWS V14.00,2013-03-28 15:15:00,
2013-03-28 10:30:00,68.6,62.2,30.18,ESE,112,3.0,6.0,80,0.00,,,0.00,235.00,VWS V14.00,2013-03-28 15:30:00,
2013-03-28 10:45:00,68.8,62.4,30.18,ESE,112,3.0,7.0,80,0.00,,,0.00,253.00,VWS V14.00,2013-03-28 15:45:00,
2013-03-28 11:00:00,69.0,62.2,30.18,SSE,150,3.0,6.0,79,0.00,,,0.00,292.00,VWS V14.00,2013-03-28 16:00:00,
2013-03-28 11:15:00,69.4,62.2,30.19,ESE,112,3.0,9.0,78,0.00,,,0.00,376.00,VWS V14.00,2013-03-28 16:15:00,
2013-03-28 11:30:00,69.9,62.4,30.19,ESE,112,4.0,11.0,77,0.00,,,0.00,385.00,VWS V14.00,2013-03-28 16:30:00,
2013-03-28 11:45:00,70.1,62.6,30.19,ESE,112,4.0,12.0,77,0.00,,,0.00,380.00,VWS V14.00,2013-03-28 16:45:00,
2013-03-28 12:00:00,70.1,62.6,30.19,ESE,112,3.0,9.0,77,0.00,,,0.00,390.00,VWS V14.00,2013-03-28 17:00:00,
2013-03-28 12:15:00,70.5,62.6,30.18,ESE,112,4.0,11.0,76,0.00,,,0.00,457.00,VWS V14.00,2013-03-28 17:15:00,
2013-03-28 12:45:00,71.1,63.2,30.18,East,90,4.0,12.0,76,0.00,,,0.00,457.00,VWS V14.00,2013-03-28 17:45:00,
2013-03-28 13:00:00,71.1,63.2,30.18,ESE,112,4.0,11.0,76,0.00,,,0.00,475.00,VWS V14.00,2013-03-28 18:00:00,
2013-03-28 13:15:00,71.6,63.3,30.17,ESE,112,4.0,10.0,75,0.00,,,0.00,579.00,VWS V14.00,2013-03-28 18:15:00,
2013-03-28 13:30:00,71.5,62.8,30.17,ESE,112,5.0,14.0,74,0.00,,,0.00,563.00,VWS V14.00,2013-03-28 18:30:00,
2013-03-28 13:45:00,71.7,62.6,30.16,SE,135,6.0,12.0,73,0.00,,,0.00,600.00,VWS V14.00,2013-03-28 18:45:00,
2013-03-28 14:00:00,71.5,62.4,30.16,ESE,112,5.0,15.0,73,0.00,,,0.00,460.00,VWS V14.00,2013-03-28 19:00:00,
2013-03-28 14:15:00,71.4,62.3,30.16,SE,135,4.0,12.0,73,0.00,,,0.00,441.00,VWS V14.00,2013-03-28 19:15:00,
2013-03-28 14:30:00,70.8,62.5,30.15,ESE,112,5.0,12.0,75,0.00,,,0.00,377.00,VWS V14.00,2013-03-28 19:30:00,
2013-03-28 14:45:00,70.3,63.1,30.15,SSE,158,4.0,11.0,78,0.00,,,0.00,271.00,VWS V14.00,2013-03-28 19:45:00,
2013-03-28 15:00:00,70.0,62.5,30.14,ESE,112,4.0,13.0,77,0.00,,,0.00,262.00,VWS V14.00,2013-03-28 20:00:00,
2013-03-28 15:15:00,69.9,62.4,30.14,ESE,112,5.0,13.0,77,0.00,,,0.00,277.00,VWS V14.00,2013-03-28 20:15:00,
2013-03-28 15:30:00,70.3,62.8,30.14,ESE,112,5.0,13.0,77,0.00,,,0.00,374.00,VWS V14.00,2013-03-28 20:30:00,
2013-03-28 15:45:00,70.3,62.0,30.13,ESE,112,5.0,13.0,75,0.00,,,0.00,380.00,VWS V14.00,2013-03-28 20:45:00,
2013-03-28 16:00:00,70.6,62.3,30.12,ESE,112,6.0,14.0,75,0.00,,,0.00,416.00,VWS V14.00,2013-03-28 21:00:00,
2013-03-28 16:15:00,70.8,62.1,30.12,ESE,112,5.0,12.0,74,0.00,,,0.00,367.00,VWS V14.00,2013-03-28 21:15:00,
2013-03-28 16:45:00,70.6,61.5,30.12,ESE,112,5.0,13.0,73,0.00,,,0.00,374.00,VWS V14.00,2013-03-28 21:45:00,
2013-03-28 17:00:00,70.8,61.3,30.11,SE,135,5.0,11.0,72,0.00,,,0.00,381.00,VWS V14.00,2013-03-28 22:00:00,
2013-03-28 17:15:00,70.8,61.7,30.12,SE,135,5.0,12.0,73,0.00,,,0.00,366.00,VWS V14.00,2013-03-28 22:15:00,
2013-03-28 17:30:00,70.2,61.2,30.12,ESE,112,5.0,11.0,73,0.00,,,0.00,253.00,VWS V14.00,2013-03-28 22:30:00,
2013-03-28 17:45:00,70.0,61.0,30.12,ESE,112,4.0,12.0,73,0.00,,,0.00,206.00,VWS V14.00,2013-03-28 22:45:00,
2013-03-28 18:00:00,69.5,60.9,30.12,SE,135,4.0,12.0,74,0.00,,,0.00,147.00,VWS V14.00,2013-03-28 23:00:00,
2013-03-28 18:15:00,69.5,61.6,30.12,ESE,112,3.0,10.0,76,0.00,,,0.00,148.00,VWS V14.00,2013-03-28 23:15:00,
2013-03-28 18:30:00,69.0,61.1,30.12,ESE,112,4.0,10.0,76,0.00,,,0.00,113.00,VWS V14.00,2013-03-28 23:30:00,
2013-03-28 18:45:00,68.7,61.6,30.13,ESE,112,4.0,10.0,78,0.00,,,0.00,84.00,VWS V14.00,2013-03-28 23:45:00,
2013-03-28 19:00:00,68.4,61.6,30.12,ESE,112,3.0,11.0,79,0.00,,,0.00,52.00,VWS V14.00,2013-03-29 00:00:00,
2013-03-28 19:15:00,68.0,61.2,30.12,ESE,112,3.0,10.0,79,0.00,,,0.00,35.00,VWS V14.00,2013-03-29 00:15:00,
2013-03-28 19:30:00,67.7,61.3,30.13,ESE,112,3.0,9.0,80,0.00,,,0.00,21.00,VWS V14.00,2013-03-29 00:30:00,
2013-03-28 19:45:00,67.3,61.6,30.13,ESE,112,2.0,7.0,82,0.00,,,0.00,4.00,VWS V14.00,2013-03-29 00:45:00,
2013-03-28 20:15:00,66.7,61.7,30.14,ESE,112,2.0,6.0,84,0.00,,,0.00,0.00,VWS V14.00,2013-03-29 01:15:00,
2013-03-28 20:32:00,66.5,61.5,30.14,ESE,112,2.0,7.0,84,0.00,,,0.00,0.00,VWS V14.00,2013-03-29 01:32:00,
2013-03-28 20:45:00,66.3,61.7,30.14,East,84,0.0,6.0,85,0.00,,,0.00,0.00,VWS V14.00,2013-03-29 01:45:00,
2013-03-28 21:00:00,66.2,61.9,30.14,East,90,2.0,5.0,86,0.00,,,0.00,0.00,VWS V14.00,2013-03-29 02:00:00,
2013-03-28 21:15:00,66.0,61.7,30.14,East,90,1.0,5.0,86,0.00,,,0.00,0.00,VWS V14.00,2013-03-29 02:15:00,
2013-03-28 21:30:00,65.9,61.9,30.15,ESE,112,2.0,7.0,87,0.00,,,0.00,0.00,VWS V14.00,2013-03-29 02:30:00,
2013-03-28 21:45:00,65.7,61.7,30.15,East,90,2.0,5.0,87,0.00,,,0.00,0.00,VWS V14.00,2013-03-29 02:45:00,
2013-03-28 22:00:00,65.6,61.6,30.15,ESE,112,2.0,6.0,87,0.00,,,0.00,0.00,VWS V14.00,2013-03-29 03:00:00,
2013-03-28 22:15:00,65.6,61.6,30.15,ESE,112,2.0,6.0,87,0.00,,,0.00,0.00,VWS V14.00,2013-03-29 03:15:00,
2013-03-28 22:30:00,65.7,61.7,30.15,ESE,112,2.0,7.0,87,0.00,,,0.00,0.00,VWS V14.00,2013-03-29 03:30:00,
2013-03-28 22:45:00,65.5,61.5,30.14,East,90,2.0,6.0,87,0.00,,,0.00,0.00,VWS V14.00,2013-03-29 03:45:00,
2013-03-28 23:00:00,65.3,61.3,30.14,ESE,112,2.0,6.0,87,0.00,,,0.00,0.00,VWS V14.00,2013-03-29 04:00:00,
2013-03-28 23:15:00,64.9,60.9,30.15,East,90,2.0,6.0,87,0.00,,,0.00,0.00,VWS V14.00,2013-03-29 04:15:00,
2013-03-28 23:30:00,64.5,60.9,30.14,ESE,112,2.0,6.0,88,0.00,,,0.00,0.00,VWS V14.00,2013-03-29 04:30:00,
2013-03-28 23:45:00,64.1,60.8,30.14,ESE,112,1.0,5.0,89,0.00,,,0.00,0.00,VWS V14.00,2013-03-29 04:45:00,